リニア彗星

P/2005 Q4 ( LINEAR )

English version
Home page
Updated on September 3, 2006

---------------------------------------------------------------------

・ プロフィール

発見日 2005年8月31日
発見光度 19.1等
発見者 Lincoln Laboratory Near-Earth Asteroid Research project

・ 写真集

・ 軌道要素

Epoch 2005 Sept. 27.0 TT = JDT 2453640.5
T 2005 Sept. 28.24327 TT                                MPC
q   1.7543623            (2000.0)            P               Q
n   0.10465889     Peri.   50.90025     +0.47184192     -0.87963885
a   4.4594911      Node    11.41463     +0.68599297     +0.32351059
e   0.6066003      Incl.   17.64999     +0.55387621     +0.34867807
P   9.42

・ 光度変化

        m1 = 14.7 + 5 logΔ + 10.0 log r(t - 60)

---------------------------------------------------------------------

軌道要素はM.P.E.C. 2005-V87に掲載されたものです。
光度グラフはComet for Windowsで作成したものです。

---------------------------------------------------------------------

Copyright(C) Seiichi Yoshida (comet@aerith.net). All rights reserved.